Location: L�beck
(53.8752°N, 10.6787°E)
Time: 08:11:46
(UTC+01:00)

ISS - Pass Details

Date: 12 November 2017
Orbit: 402 x 407 km, 51.6° (Epoch: 22 November)

Event Time Altitude Azimuth Distance (km) Brightness Sun altitude
Exits shadow 05:52:31 29° 236° (WSW) 769 -2.8 -15.5°
Maximum altitude 05:53:25 35° 200° (SSW) 666 -2.9 -15.4°
Drops below altitude 10° 05:56:26 10° 133° (SE) 1,454 -0.1 -15.0°
Sets 05:58:35 0° 124° (SE) 2,311 1.3 -14.7°
